www.pogodaiklimat.ru

Погода и климат >> Архив погоды >> Россия >> Ямало-Ненецкий АО >> Белоярск


ПОГОДА в Белоярске

  • Прогноз погоды в Белоярске
  • Монитор погоды в Белоярске

АРХИВ ПОГОДЫ в Белоярске

Время (UTC), дата Ветер
(напр.,м/с)
 
Видим.   Явления Облачность Т
(С)
Тd
(С)
f
(%)
Тe
(С)
Тes
(С)
Комфортность P
(гПа)
Po
(гПа)
Тmin
(С)
Tmax
(С)
R
(мм)
R24
(мм)
S
(см)
09 15.08 ЮВ 4 н/о н/о +15.3 -26.8 4 +15 +15 1014.6 1010.4
12 15.08 З 1 н/о н/о +14.4 -27.4 4 +15 +15 1014.0 1009.8
15 15.08 ЮВ 2 н/о н/о +14.5 -27.3 4 +15 +15 1014.5 1010.3 +16.2 4
18 15.08 Ю 2 н/о н/о +12.0 -29.1 4 +12 +12 1015.2 1010.9
21 15.08 З 1 н/о н/о +7.5 +6.4 93 +6 +6 1015.1 1010.8
00 16.08 СЗ 1 н/о н/о +6.6 +4.5 86 +6 +6 1015.4 1011.1
03 16.08 Ю 1 н/о н/о +12.3 -28.8 4 +13 +13 1014.5 1010.3 +6.5 1
09 16.08 Ю 2 н/о н/о +17.5 -22.9 5 +18 +18 1011.3 1007.2
12 16.08 Ю 2 н/о н/о +16.2 -26.1 4 +17 +17 1009.8 1005.6
15 16.08 Ю 3 н/о н/о +15.9 -26.3 4 +16 +16 1008.5 1004.3
18 16.08 Ю 2 н/о н/о +15.6 -26.5 4 +16 +16 1007.8 1003.6
21 16.08 ЮВ 2 н/о н/о +13.4 -28.1 4 +13 +13 1008.1 1003.9
00 17.08 ЮВ 3 н/о н/о +13.1 -28.3 4 +13 +13 1008.0 1003.8
03 17.08 ЮВ 4 н/о н/о +15.6 -26.5 4 +15 +15 1008.0 1003.8 +12.7
06 17.08 Ю 7
{12}
н/о н/о +16.3 -26.0 4 +15 +15 1008.4 1004.3
09 17.08 ЮЗ 8
{13}
н/о н/о +17.8 -25.0 4 +17 +17 1010.1 1005.9
12 17.08 Ю 6
{15}
н/о н/о +15.5 -26.6 4 +14 +14 1012.4 1008.3
15 17.08 ЮЗ 3
{11}
н/о н/о +12.4 -25.2 6 +12 +12 1014.7 1010.4 +17.9 2
18 17.08 З 5 н/о н/о +10.1 -30.4 4 +8 +8 1015.9 1011.6
21 17.08 ЮЗ 4 н/о н/о +8.4 -8.7 29 +6 +6 1017.2 1012.9
00 18.08 ЮЗ 4 н/о н/о +8.0 +5.4 84 +5 +5 1018.7 1014.4
03 18.08 З 2 н/о н/о +11.6 -29.3 4 +11 +11 1020.2 1016.0 +5.3
06 18.08 ЮЗ 7
{12}
н/о н/о +13.0 -28.4 4 +11 +11 1021.4 1017.2
09 18.08 ЮЗ 4
{12}
н/о н/о +13.0 -28.3 4 +12 +12 1023.2 1018.9
12 18.08 В 3 н/о н/о +14.5 -27.3 4 +14 +14 1024.4 1020.2
15 18.08 ЮВ 2 н/о н/о +11.6 -29.4 4 +11 +11 1026.0 1021.7 +15.5
18 18.08 В 4 н/о н/о +7.9 +6.0 88 +5 +5 1027.5 1023.1
21 18.08 В 2 н/о н/о +7.6 +2.0 68 +6 +6 1028.3 1023.9
00 19.08 В 3 н/о н/о +6.4 +5.0 91 +3 +3 1030.0 1025.6
03 19.08 З 3 н/о н/о +8.4 -10.7 25 +7 +7 1030.6 1026.2 +6.4
09 19.08 СЗ 4 н/о н/о +15.5 -26.6 4 +15 +15 1029.8 1025.6
12 19.08 ЮВ 3 н/о н/о +16.9 -25.6 4 +17 +17 1029.6 1025.4
15 19.08 В 1 н/о н/о +15.6 -26.5 4 +17 +17 1029.5 1025.2
18 19.08 СЗ 2 н/о н/о +13.4 -28.1 4 +13 +13 1029.7 1025.4
21 19.08 СЗ 3 н/о н/о +12.0 -29.0 4 +11 +11 1029.4 1025.1
00 20.08 В 3 н/о н/о +11.3 -29.5 4 +10 +10 1029.4 1025.1
03 20.08 ЮВ 3 н/о н/о +12.6 -28.6 4 +12 +12 1029.6 1025.3 +11.0 1
09 20.08 ЮВ 2 н/о н/о +16.2 -26.1 4 +17 +17 1028.6 1024.4
12 20.08 ЮВ 3 н/о н/о +18.0 -24.8 4 +18 +18 1028.0 1023.8
15 20.08 ЮВ 2 н/о н/о +15.5 -26.6 4 +16 +16 1027.7 1023.5 +18.5
18 20.08 В 3 н/о н/о +9.9 -30.5 4 +9 +9 1028.1 1023.8
21 20.08 ЮВ 2 н/о н/о +7.9 +6.5 91 +6 +6 1027.8 1023.5
03 21.08 СВ 2 н/о н/о +8.6 -10.2 25 +8 +8 1027.3 1023.0 +4.4
06 21.08 Ю 2 н/о н/о +14.3 -27.4 4 +14 +14 1026.4 1022.1
09 21.08 ЮЗ 2 н/о н/о +17.2 -25.4 4 +18 +18 1024.9 1020.7
12 21.08 ЮЗ 2 н/о н/о +18.1 -24.8 4 +19 +19 1023.3 1019.1

 

Местоположение метеостанции Белоярск (Ямало-Ненецкий АО, Россия): широта 66.87 долгота 68.13 высота над уровнем моря 35 м.

В архиве по умолчанию представлена погода в Белоярске за последнюю неделю. Архивные данные за месяц целиком и за предыдущие месяцы, начиная с января 2011 года, Вы можете получить, выбрав интересующий диапазон дат из раскрывающегося списка и нажав кнопку "Ввод!".


*Определитесь, кто Вы:
робот инопланетянин человек

Внимание! Время в таблицах - всемирное. Для получения местного времени необходимо прибавить поправку, которая равна 5 ч.

Смотрите также архив погоды в соседних городах и на ближайших метеорологических станциях:

Погода в Салехарде (Ямало-Ненецкий АО, Россия) (75 км)
Погода в Полуе (Ямало-Ненецкий АО, Россия) (97 км)
Погода в Харпе (Ямало-Ненецкий АО, Россия) (103 км)
Погода в Питляре (Ямало-Ненецкий АО, Россия) (152 км)
Погода в Елецкой (Коми, Россия) (178 км)
Погода в Воркуте (Коми, Россия) (192 км)
Погода в Ныде (Ямало-Ненецкий АО, Россия) (212 км)
Погода в Новом Порте (Ямало-Ненецкий АО, Россия) (223 км)
Погода в Мужах (Ямало-Ненецкий АО, Россия) (226 км)
Погода в Надыме (Ямало-Ненецкий АО, Россия) (257 км)

Пояснения к столбцам:

Ветер - указаны скорость ветра в м/с - средняя за 10 мин, порывы в срок и между сроками (в фигурных скобках) и направление, откуда дует ветер: С - северный, СВ - северо-восточный, В - восточный, ЮВ - юго-восточный, Ю - южный, ЮЗ - юго-западный, З - западный, СЗ - северо-западный.
Видимость - горизонтальная дальность видимости в метрах или километрах. При видимости от 1 до 10 км при отсутствии осадков обычно наблюдается дымка, при ухудшении видимости до 1 км и менее - туман. В сухую погоду видимость может ухудшаться дымом, пылью или мглою.
Явления - указаны атмосферные явления, наблюдавшиеся в срок или в последний час перед сроком; фигурными скобками обозначены явления, наблюдавшиеся между сроками (за 1-3 часа до срока); квадратными скобками обозначены град или гололедные отложения с указанием их диаметра в мм.
Облачность - указаны через наклонную черту общая и нижняя облачность в баллах и высота нижней границы облаков в метрах; квадратными скобками обозначены формы облаков: Ci - перистые, Cs - перисто-слоистые, Cc - перисто-кучевые, Ac - высококучевые, As - высокослоистые, Sc - слоисто-кучевые, Ns - слоисто-дождевые, Cu - кучевые, Cb - кучево-дождевые. Подробнее классификацию облаков см. в Атласе облаков (PDF).
T - Температура воздуха - температура, измеренная на высоте 2 м над землей.
Td - Температура точки росы - температура, при понижении до которой содержащийся в воздухе водяной пар достигнет насыщения.
f - Относительная влажность воздуха - влажноcть воздуха, измеренная на высоте 2 м над землей.
Te - Эффективная температура - температура, которую ощущает одетый по сезону человек в тени. Характеристика душности погоды. При расчете учитывается влияние влажности воздуха и скорости ветра на теплоощущения человека.
Tes - Эффективная температура на солнце - температура, которую ощущает человек, с поправкой на солнечный нагрев. Характеристика знойности погоды. Зависит от высоты солнца над горизонтом, облачности и скорости ветра. Ночью, в пасмурную погоду, а также при ветре 12 м/с и более поправка равна нулю.
P - Атмосферное давление - приведенное к уровню моря атмосферное давление.
Po - Атмосферное давление - измеренное на уровне метеостанции атмосферное давление.
Tmin - Минимальная температура - минимум температуры воздуха на высоте 2 м над землей.
Tmax - Максимальная температура - максимум температуры воздуха на высоте 2 м над землей.
R - Количество осадков - Количество выпавших осадков за период времени, мм. При наведении курсора мыши на число - период времени, за который выпало указанное количество осадков.
R24 - Количество осадков - Количество выпавших осадков за 24 часа, мм.
S - Снежный покров - Высота снежного покрова, см. При наведении курсора мыши на число - состояние снежного покрова и степень покрытия местности в баллах.